Home   Weather   Huntsville   Past weeks

Flag for USA Past Weather in Huntsville, Alabama, USA — Yesterday and Last 2 Weeks

Now
74 °F

Rain. Fog.


Feels Like: 70 °F
Forecast: 74 / 82 °F
Wind: 3 mph from Southwest

Location: Huntsville International / Jones Field

Current Time: Jul 28, 2017 at 8:16:33 am

Latest Report: Jul 28, 2017 at 7:37 am


Visibility: 3 mi

Pressure: 29.92 "Hg

Humidity: 100%

Dew Point: 74 °F

Location of HuntsvilleLocation

Past Weather in Huntsville — Graph

°F

Huntsville Temperature Yesterday

Maximum temperature yesterday: 95 °F (at 2:53 pm)
Minimum temperature yesterday: 77 °F (at 3:53 am)
Average temperature yesterday: 85 °F

High & Low Weather Summary for the Past Weeks

 TemperatureHumidityPressure
High97 °F (Jul 19, 1:53 pm)100% (Jul 14, 4:53 am)30.18 "Hg (Jul 14, 4:53 am)
Low71 °F (Jul 18, 5:53 am)35% (Jul 19, 2:53 pm)29.83 "Hg (Jul 23, 5:53 pm)
Average83 °F79%30.02 "Hg
* Reported Jul 13 6:53 am — Jul 28 6:53 am, Huntsville. Weather by CustomWeather, © 2017

Note: Actual official high and low records may vary slightly from our data, if they occured in-between our weather recording intervals... More about our weather records

Advertising

Huntsville Weather History for the Previous 24 Hours

Scroll right to see more
 ConditionsComfort  
Time TempWeatherWind HumidityBarometerVisibility
6:53 am
Fri, Jul 28
76 °FLight rain. Mostly cloudy.5 mph91%29.87 "Hg10 mi
5:53 am78 °FLight rain. Mostly cloudy.6 mph84%29.88 "Hg10 mi
4:53 am79 °FMostly cloudy.6 mph88%29.88 "Hg10 mi
3:53 am79 °FOvercast.5 mph90%29.87 "Hg10 mi
3:39 am80 °FMostly cloudy.6 mph87%29.90 "Hg10 mi
3:17 am80 °FLight rain. Passing clouds.5 mph87%29.91 "Hg10 mi
2:53 am80 °FPassing clouds.No wind87%29.87 "Hg10 mi
1:53 am80 °FPassing clouds.3 mph87%29.88 "Hg10 mi
12:53 am80 °FClear.3 mph87%29.88 "Hg10 mi
11:53 pm
Thu, Jul 27
80 °FPartly cloudy.5 mph87%29.90 "Hg10 mi
10:53 pm82 °FPartly cloudy.5 mph82%29.90 "Hg10 mi
9:53 pm82 °FPassing clouds.6 mph82%29.91 "Hg10 mi
8:53 pm84 °FOvercast.3 mph77%29.90 "Hg10 mi
7:53 pm86 °FMostly cloudy.5 mph70%29.90 "Hg10 mi
6:53 pm89 °FOvercast.3 mph61%29.90 "Hg10 mi
5:53 pm91 °FPartly sunny.8 mph56%29.90 "Hg10 mi
4:53 pm93 °FPartly sunny.8 mph49%29.91 "Hg10 mi
3:53 pm93 °FPartly sunny.7 mph49%29.93 "Hg10 mi
2:53 pm95 °FBroken clouds.10 mph44%29.95 "Hg10 mi
1:53 pm93 °FScattered clouds.12 mph49%29.98 "Hg10 mi
12:53 pm92 °FScattered clouds.7 mph56%29.99 "Hg10 mi
11:53 am91 °FScattered clouds.7 mph57%30.01 "Hg10 mi
10:53 am90 °FScattered clouds.7 mph59%30.03 "Hg10 mi
9:53 am88 °FScattered clouds.6 mph67%30.04 "Hg10 mi
8:53 am85 °FScattered clouds.No wind83%30.04 "Hg10 mi
Weather by CustomWeather, © 2017

See weather overviewHow to use our weather pages